[[{"header":{"parameterUnit":"m.s-1","parameterCategory":2,"la1":30.2991,"la2":30.254,"lo1":-89.0895,"lo2":-89.0444,"dy":0.0017,"dx":0.0017,"nx":28,"ny":28,"refTime":"2025-01-01T03:00:00:Z","depth":"0","parameterNumber":2,"parameterNumberName":"U-component_of_CURRENTS"},"data":[0,0,0,0,0,0,0,0,0,0,0,0,0,0,0,0,0,0,0,0,0,0,0,0,0,0,0,0,0,0,0,0,0,0,0,0,0,0,0,0,0,0,0,0,0,0,0,0,0,0,0,0,0,0,0,0,0,0,-0.2207,-0.2207,0,-0.2201,-0.2201,-0.2201,-0.2164,-0.2164,-0.2163,-0.2162,-0.2124,-0.2124,-0.2124,0,0,0,0,0,0,0,0,0,0,0,0,0,-0.2178,-0.2179,-0.2207,-0.2207,-0.2207,-0.2201,-0.2201,-0.2201,-0.2164,-0.2164,-0.2163,-0.2162,-0.2125,-0.2124,-0.2124,0,0,0,0,0,0,0,0,0,0,0,0,0,-0.2182,-0.2179,-0.2207,-0.219,-0.2188,-0.2201,-0.2201,-0.2201,-0.2165,-0.2164,-0.2163,-0.2162,-0.2125,-0.2124,-0.2124,-0.2141,0,0,-0.2122,-0.2122,0,0,0,0,0,0,0,0,-0.2181,-0.2182,-0.2192,-0.2191,-0.2189,-0.2184,-0.2177,-0.218,-0.2165,-0.2171,-0.2162,-0.2161,-0.2144,-0.2141,-0.214,-0.2139,-0.2138,-0.2122,-0.2122,-0.2121,-0.2121,0,0,0,0,0,0,0,-0.2181,-0.2182,-0.2202,-0.2192,-0.2191,-0.218,-0.2179,-0.2177,-0.2161,-0.2171,-0.2169,-0.2172,-0.2142,-0.2141,-0.2139,-0.2137,-0.2122,-0.2122,-0.2121,-0.2121,-0.2142,-0.2143,0,0,0,0,0,0,-0.2188,-0.2182,-0.2203,-0.2202,-0.2185,-0.2181,-0.218,-0.2185,-0.2162,-0.2158,-0.2173,-0.217,-0.2142,-0.214,-0.2138,-0.2155,-0.2121,-0.2121,-0.2121,-0.2141,-0.2142,-0.2143,0,0,0,0,0,0,-0.2187,-0.219,-0.2203,-0.2194,-0.2195,-0.2183,-0.2189,-0.2186,-0.2181,-0.2164,-0.2159,-0.2171,-0.2141,-0.2138,-0.214,-0.2153,-0.2121,-0.212,-0.214,-0.2142,-0.2143,-0.2192,0,0,0,0,0,0,-0.2187,-0.219,-0.2191,-0.2194,-0.2196,-0.2216,-0.219,-0.2186,-0.2185,-0.2182,-0.2161,-0.2156,-0.214,-0.2141,-0.2139,-0.2152,-0.212,-0.2139,-0.2141,-0.2142,-0.2189,-0.2195,-0.22,0,0,0,0,0,-0.2186,-0.2198,-0.2191,-0.2194,-0.22,-0.2217,-0.2217,-0.2204,-0.2186,-0.2193,-0.2177,-0.2157,-0.215,-0.2141,-0.2139,-0.2152,-0.2138,-0.214,-0.2142,-0.2187,-0.2194,-0.2199,0,0,0,0,0,0,-0.2186,-0.2195,-0.2188,-0.2202,-0.2211,-0.2212,-0.2216,-0.2208,-0.2201,-0.2193,-0.217,-0.2166,-0.2172,-0.2159,-0.215,-0.2164,-0.214,-0.2142,-0.2175,-0.2181,-0.2186,-0.2191,-0.2119,0,0,0,0,0,-0.2188,-0.2196,-0.2207,-0.2215,-0.2222,-0.2219,-0.2221,-0.2216,-0.2214,-0.2209,-0.2196,-0.2183,-0.2181,-0.2177,-0.2172,-0.2183,-0.2159,-0.2189,-0.2195,-0.2199,-0.2202,-0.2186,-0.219,-0.215,-0.215,-0.215,0,0,-0.2189,-0.2196,-0.2199,-0.2215,-0.2218,-0.2238,-0.2217,-0.2228,-0.224,-0.2207,-0.2214,-0.2202,-0.2188,-0.2198,-0.2199,-0.2187,-0.2196,-0.2202,-0.2205,-0.2206,-0.2189,-0.2192,-0.2196,-0.2151,-0.2151,-0.2151,0,0,-0.2202,-0.2204,-0.2217,-0.2231,-0.2243,-0.2248,-0.2254,-0.2261,-0.2258,-0.2269,-0.2248,-0.2245,-0.2241,-0.2235,-0.2231,-0.2264,-0.2225,-0.2261,-0.229,-0.2275,-0.2278,-0.228,-0.2246,-0.2245,-0.2263,-0.2263,-0.2263,0,-0.2201,-0.2218,-0.2224,-0.2246,-0.2256,-0.2257,-0.2277,-0.2286,-0.229,-0.229,-0.2277,-0.227,-0.2259,-0.2269,-0.2281,-0.2275,-0.2252,-0.2267,-0.2281,-0.2283,-0.2284,-0.2249,-0.2247,-0.2265,-0.2265,-0.2265,-0.2265,0,-0.2226,-0.2241,-0.2253,-0.2278,-0.2295,-0.2311,-0.233,-0.2341,-0.2336,-0.2337,-0.2342,-0.2329,-0.232,-0.2322,-0.2313,-0.2323,-0.2298,-0.2289,-0.2264,-0.2291,-0.2252,-0.2249,-0.2269,-0.2268,-0.2267,-0.2267,0,0,-0.2209,-0.2259,-0.2259,-0.2271,-0.2309,-0.232,-0.2356,-0.2377,-0.2382,-0.239,-0.239,-0.2399,-0.2381,-0.2376,-0.2362,-0.2356,-0.2348,-0.2332,-0.233,-0.2296,-0.2299,-0.2216,-0.2204,-0.2341,-0.2341,-0.2341,-0.2264,0,-0.2218,-0.2256,-0.2284,-0.2315,-0.2333,-0.2357,-0.2385,-0.2405,-0.2412,-0.2416,-0.2412,-0.2406,-0.2406,-0.2392,-0.2393,-0.2358,-0.2345,-0.2369,-0.228,-0.2277,-0.2198,-0.22,-0.2109,-0.2028,-0.2261,-0.226,-0.226,0,-0.222,-0.2246,-0.2278,-0.2319,-0.2329,-0.2351,-0.2377,-0.2404,-0.2427,-0.243,-0.2436,-0.2425,-0.2426,-0.2412,-0.2378,-0.2392,-0.2352,-0.2325,-0.2321,-0.2224,-0.2188,-0.204,-0.2013,-0.1995,-0.2255,-0.2255,-0.2256,0,-0.2176,-0.2233,-0.2251,-0.2268,-0.2324,-0.2337,-0.2363,-0.2396,-0.2407,-0.2428,-0.2423,-0.2432,-0.2411,-0.2391,-0.2343,-0.2358,-0.2286,-0.2294,-0.218,-0.2173,-0.2068,-0.2051,-0.2009,-0.2261,-0.2261,-0.2261,-0.2262,0,-0.2158,-0.2168,-0.2229,-0.2236,-0.225,-0.2304,-0.2316,-0.2345,-0.2378,-0.2378,-0.2414,-0.2402,-0.2404,-0.2366,-0.2337,-0.2239,-0.2276,-0.2178,-0.2148,-0.2081,-0.2067,-0.2023,-0.204,-0.2259,-0.2259,-0.226,-0.226,0,-0.2089,-0.2137,-0.2154,-0.2212,-0.2225,-0.2228,-0.2277,-0.2284,-0.233,-0.2328,-0.2332,-0.2363,-0.2315,-0.2294,-0.224,-0.2201,-0.2082,-0.2086,-0.1997,-0.1958,-0.1838,-0.186,-0.1766,-0.1718,-0.1952,-0.1949,-0.1947,0,-0.2053,-0.2057,-0.2108,-0.2111,-0.2131,-0.2154,-0.2166,-0.2236,-0.2249,-0.2293,-0.228,-0.2257,-0.2208,-0.2105,-0.2042,-0.1952,-0.1962,-0.1818,-0.1835,-0.1809,-0.1813,-0.1832,-0.1801,-0.1713,-0.1709,-0.1706,-0.1704,0,-0.1969,-0.1988,-0.2001,-0.2014,-0.2026,-0.2042,-0.2071,-0.2077,-0.2151,-0.215,-0.2136,-0.2102,-0.2026,-0.1898,-0.1797,-0.1745,-0.1765,-0.1748,-0.1749,-0.1641,-0.1631,-0.1577,-0.1784,-0.1676,-0.1678,-0.168,-0.1682,-0.1683,-0.1886,-0.1874,-0.1894,-0.1891,-0.191,-0.1907,-0.1877,-0.1921,-0.1913,-0.189,-0.1947,-0.1863,-0.1792,-0.1637,-0.1582,-0.1471,-0.1541,-0.1434,-0.1467,-0.149,-0.1434,-0.1568,-0.1413,-0.1414,-0.1415,-0.1416,-0.1417,0,-0.1771,-0.177,-0.1769,-0.1763,-0.1733,-0.1785,-0.1789,-0.1739,-0.1683,-0.1699,-0.1655,-0.1575,-0.1437,-0.1398,-0.1291,-0.1218,-0.121,-0.1199,-0.1225,-0.121,-0.1338,-0.1318,-0.1101,-0.1101,-0.1101,-0.1101,-0.1101,-0.1101,-0.171,-0.1665,-0.1667,-0.1579,-0.1573,-0.1489,-0.1461,-0.141,-0.1394,-0.1308,-0.1284,-0.1305,-0.1275,-0.1278,-0.1164,-0.1104,-0.1092,-0.104,-0.1081,-0.1203,-0.1229,-0.1254,-0.124,-0.101,-0.101,-0.0906,-0.0906,-0.0905]},{"header":{"parameterUnit":"m.s-1","parameterCategory":2,"la1":30.2991,"la2":30.254,"lo1":-89.0895,"lo2":-89.0444,"dy":0.0017,"dx":0.0017,"nx":28,"ny":28,"refTime":"2025-01-01T03:00:00:Z","depth":"0","parameterNumber":3,"parameterNumberName":"V-component_of_CURRENTS"},"data":[0,0,0,0,0,0,0,0,0,0,0,0,0,0,0,0,0,0,0,0,0,0,0,0,0,0,0,0,0,0,0,0,0,0,0,0,0,0,0,0,0,0,0,0,0,0,0,0,0,0,0,0,0,0,0,0,0,0,-0.0492,-0.0491,0,-0.0437,-0.0436,-0.0435,-0.0394,-0.0393,-0.0393,-0.0393,-0.0309,-0.0307,-0.0305,0,0,0,0,0,0,0,0,0,0,0,0,0,-0.0521,-0.0521,-0.0492,-0.0491,-0.0491,-0.0437,-0.0436,-0.0435,-0.0394,-0.0393,-0.0393,-0.0393,-0.0309,-0.0307,-0.0305,0,0,0,0,0,0,0,0,0,0,0,0,0,-0.0491,-0.0521,-0.0492,-0.0464,-0.0461,-0.0437,-0.0436,-0.0435,-0.0394,-0.0393,-0.0393,-0.0392,-0.031,-0.0307,-0.0305,-0.0296,0,0,-0.0296,-0.0294,0,0,0,0,0,0,0,0,-0.0493,-0.049,-0.0469,-0.0466,-0.0462,-0.0422,-0.0415,-0.0387,-0.0394,-0.0419,-0.0393,-0.0392,-0.0345,-0.0339,-0.0329,-0.0292,-0.0289,-0.0295,-0.0294,-0.0292,-0.0292,0,0,0,0,0,0,0,-0.0495,-0.0492,-0.0469,-0.0468,-0.0464,-0.044,-0.0436,-0.041,-0.0384,-0.0416,-0.0413,-0.0408,-0.0343,-0.0332,-0.0327,-0.0287,-0.0296,-0.0293,-0.0291,-0.029,-0.0227,-0.0227,0,0,0,0,0,0,-0.0506,-0.0494,-0.0471,-0.0468,-0.0477,-0.044,-0.0435,-0.0435,-0.0385,-0.0377,-0.0409,-0.0407,-0.0337,-0.033,-0.0324,-0.0311,-0.0292,-0.029,-0.0288,-0.0227,-0.0227,-0.0228,0,0,0,0,0,0,-0.0507,-0.0504,-0.0473,-0.048,-0.0474,-0.0441,-0.0441,-0.0434,-0.0424,-0.038,-0.0371,-0.0405,-0.0337,-0.0328,-0.0303,-0.0307,-0.0288,-0.0286,-0.0227,-0.0227,-0.0227,-0.0285,0,0,0,0,0,0,-0.0508,-0.0505,-0.0509,-0.0481,-0.0474,-0.0465,-0.0441,-0.0434,-0.0421,-0.0418,-0.0373,-0.0365,-0.0336,-0.0307,-0.03,-0.0303,-0.0284,-0.0227,-0.0227,-0.0227,-0.0283,-0.0287,-0.0291,0,0,0,0,0,-0.0509,-0.0521,-0.051,-0.0507,-0.0481,-0.0466,-0.0461,-0.0434,-0.0422,-0.0422,-0.039,-0.0366,-0.0303,-0.0305,-0.0296,-0.0299,-0.0227,-0.0227,-0.0227,-0.0281,-0.0286,-0.029,0,0,0,0,0,0,-0.0535,-0.0517,-0.0505,-0.051,-0.0491,-0.0459,-0.0458,-0.0439,-0.0414,-0.0411,-0.0368,-0.0358,-0.0338,-0.031,-0.0314,-0.028,-0.0261,-0.0259,-0.0305,-0.0309,-0.0313,-0.0324,-0.0281,0,0,0,0,0,-0.0544,-0.0548,-0.0523,-0.0526,-0.052,-0.049,-0.048,-0.0464,-0.0438,-0.0426,-0.0394,-0.036,-0.0332,-0.0315,-0.0287,-0.0269,-0.0233,-0.0264,-0.0268,-0.0271,-0.0274,-0.0225,-0.0225,-0.0228,-0.0228,-0.0228,0,0,-0.0554,-0.0545,-0.0546,-0.0532,-0.0516,-0.0515,-0.0483,-0.0475,-0.0471,-0.0421,-0.0407,-0.0374,-0.0331,-0.0311,-0.0299,-0.0288,-0.0251,-0.0272,-0.0275,-0.0275,-0.0225,-0.0225,-0.0225,-0.0228,-0.0228,-0.0228,0,0,-0.0583,-0.057,-0.0585,-0.0574,-0.0557,-0.0537,-0.0538,-0.0509,-0.0492,-0.0475,-0.0438,-0.0407,-0.0367,-0.0335,-0.0314,-0.0321,-0.0274,-0.0312,-0.0338,-0.0291,-0.029,-0.0289,-0.0243,-0.0237,-0.0312,-0.0312,-0.0312,0,-0.0597,-0.061,-0.0586,-0.0597,-0.059,-0.0551,-0.0562,-0.0542,-0.0508,-0.0492,-0.048,-0.041,-0.0378,-0.0344,-0.0349,-0.0329,-0.0295,-0.0327,-0.0296,-0.0295,-0.0293,-0.0245,-0.0238,-0.0315,-0.0314,-0.0314,-0.0314,0,-0.0637,-0.0644,-0.0652,-0.0652,-0.0642,-0.0645,-0.0614,-0.0599,-0.0574,-0.0545,-0.0508,-0.0459,-0.0415,-0.0402,-0.0379,-0.0349,-0.0326,-0.031,-0.0288,-0.0296,-0.0245,-0.0236,-0.0319,-0.0318,-0.0317,-0.0316,0,0,-0.0673,-0.0681,-0.0682,-0.0689,-0.0671,-0.0666,-0.0659,-0.0634,-0.0619,-0.0582,-0.0554,-0.051,-0.0473,-0.0447,-0.0407,-0.0371,-0.033,-0.0342,-0.0338,-0.03,-0.0224,-0.0183,-0.0169,-0.0308,-0.0307,-0.0307,-0.0194,0,-0.071,-0.0747,-0.0734,-0.0755,-0.0767,-0.0728,-0.0721,-0.0691,-0.0652,-0.0615,-0.0555,-0.0517,-0.0493,-0.0468,-0.0429,-0.035,-0.0311,-0.0362,-0.0217,-0.0212,-0.0179,-0.0159,-0.0133,-0.0028,-0.0185,-0.0184,-0.0183,0,-0.0753,-0.0771,-0.0806,-0.0803,-0.0803,-0.0805,-0.0774,-0.0762,-0.0699,-0.0665,-0.0613,-0.0558,-0.0494,-0.0474,-0.035,-0.0383,-0.0314,-0.0256,-0.025,-0.0186,-0.0155,-0.0044,-0.0006,0.0083,-0.017,-0.0171,-0.0172,0,-0.0793,-0.0814,-0.0844,-0.0846,-0.084,-0.0839,-0.0828,-0.0779,-0.0759,-0.0692,-0.0662,-0.0577,-0.052,-0.0433,-0.0313,-0.033,-0.0169,-0.0171,-0.0068,-0.0064,0.0001,0.0009,0.0138,-0.0088,-0.0088,-0.0089,-0.0089,0,-0.0838,-0.0857,-0.0867,-0.0883,-0.0904,-0.088,-0.0879,-0.0851,-0.0798,-0.0764,-0.0691,-0.0634,-0.0507,-0.0397,-0.0307,-0.0151,-0.0158,-0.0064,-0.0029,-0.0018,-0.0014,0.0101,0.0128,-0.0084,-0.0085,-0.0086,-0.0087,0,-0.0878,-0.0887,-0.0919,-0.0926,-0.0928,-0.0941,-0.0922,-0.0913,-0.086,-0.081,-0.0789,-0.0661,-0.0511,-0.0377,-0.0207,-0.0129,0.0072,0.0058,0.0063,0.0096,0.0257,0.0279,0.0449,0.0502,0.0184,0.0186,0.0188,0,-0.0902,-0.0927,-0.0955,-0.0975,-0.0981,-0.0993,-0.0997,-0.0953,-0.0931,-0.0818,-0.0791,-0.0636,-0.0508,-0.0241,-0.0071,0.0113,0.0169,0.0235,0.0203,0.0282,0.0333,0.0344,0.0376,0.027,0.0272,0.0274,0.0275,0,-0.094,-0.0951,-0.0978,-0.1026,-0.1045,-0.1057,-0.1052,-0.1041,-0.0969,-0.0901,-0.0771,-0.0657,-0.0391,-0.0151,0.0085,0.0189,0.0304,0.0274,0.0363,0.0419,0.0435,0.0498,0.0176,0.029,0.0289,0.0288,0.0287,0.0286,-0.0958,-0.0991,-0.1029,-0.1069,-0.1094,-0.1105,-0.1097,-0.1059,-0.1,-0.0864,-0.0759,-0.0549,-0.0234,0.0114,0.0232,0.048,0.0442,0.0542,0.0567,0.0574,0.0616,0.0325,0.0469,0.0469,0.0469,0.0468,0.0468,0,-0.0975,-0.1015,-0.1064,-0.1106,-0.1133,-0.1135,-0.1116,-0.107,-0.0977,-0.083,-0.0674,-0.0291,0.0016,0.0289,0.0631,0.0759,0.0772,0.0822,0.0841,0.0862,0.0623,0.0616,0.0791,0.0791,0.079,0.079,0.079,0.079,-0.0985,-0.1039,-0.107,-0.1121,-0.1146,-0.1145,-0.1124,-0.1026,-0.0905,-0.0633,-0.0393,-0.0209,0.0178,0.0693,0.0993,0.1019,0.1109,0.111,0.1156,0.0981,0.0956,0.0933,0.0934,0.1173,0.1173,0.1386,0.1388,0.139]}],[{"header":{"parameterUnit":"m.s-1","parameterCategory":2,"la1":30.2991,"la2":30.254,"lo1":-89.0895,"lo2":-89.0444,"dy":0.0017,"dx":0.0017,"nx":28,"ny":28,"refTime":"2025-01-01T03:00:00:Z","depth":"2","parameterNumber":2,"parameterNumberName":"U-component_of_CURRENTS"},"data":[0,0,0,0,0,0,0,0,0,0,0,0,0,0,0,0,0,0,0,0,0,0,0,0,0,0,0,0,0,0,0,0,0,0,0,0,0,0,0,0,0,0,0,0,0,0,0,0,0,0,0,0,0,0,0,0,0,0,-0.1944,-0.1944,0,-0.1946,-0.1946,-0.1946,-0.1922,-0.1922,-0.1921,-0.1921,-0.1897,-0.1897,-0.1897,0,0,0,0,0,0,0,0,0,0,0,0,0,-0.1912,-0.1913,-0.1944,-0.1944,-0.1944,-0.1946,-0.1946,-0.1946,-0.1923,-0.1922,-0.1921,-0.1921,-0.1897,-0.1897,-0.1897,0,0,0,0,0,0,0,0,0,0,0,0,0,-0.192,-0.1913,-0.1944,-0.1934,-0.1933,-0.1946,-0.1946,-0.1946,-0.1923,-0.1922,-0.1921,-0.1921,-0.1897,-0.1897,-0.1897,-0.191,0,0,-0.1896,-0.1896,0,0,0,0,0,0,0,0,-0.1919,-0.1921,-0.1935,-0.1935,-0.1934,-0.1935,-0.1926,-0.1933,-0.1923,-0.1925,-0.1921,-0.192,-0.1909,-0.1908,-0.1908,-0.1908,-0.1907,-0.1896,-0.1896,-0.1896,-0.1896,0,0,0,0,0,0,0,-0.1919,-0.1921,-0.1943,-0.1935,-0.1935,-0.1928,-0.1928,-0.1928,-0.1919,-0.1924,-0.1923,-0.1927,-0.1908,-0.1908,-0.1907,-0.1907,-0.1896,-0.1896,-0.1895,-0.1895,-0.1919,-0.1919,0,0,0,0,0,0,-0.1924,-0.192,-0.1943,-0.1943,-0.1927,-0.1929,-0.1929,-0.1934,-0.192,-0.1917,-0.1927,-0.1926,-0.1909,-0.1907,-0.1906,-0.1926,-0.1896,-0.1895,-0.1895,-0.1918,-0.1919,-0.192,0,0,0,0,0,0,-0.1923,-0.1926,-0.1943,-0.1933,-0.1935,-0.193,-0.1936,-0.1934,-0.1934,-0.1922,-0.1919,-0.1929,-0.1908,-0.1906,-0.1912,-0.1925,-0.1895,-0.1895,-0.1917,-0.1918,-0.1919,-0.1963,0,0,0,0,0,0,-0.1922,-0.1925,-0.1928,-0.1933,-0.1936,-0.1957,-0.1937,-0.1935,-0.1938,-0.1936,-0.1923,-0.192,-0.1907,-0.1912,-0.1911,-0.1924,-0.1895,-0.1916,-0.1917,-0.1919,-0.196,-0.1965,-0.197,0,0,0,0,0,-0.1921,-0.1931,-0.1928,-0.1931,-0.194,-0.1957,-0.1958,-0.1951,-0.1939,-0.1946,-0.1937,-0.192,-0.1921,-0.1913,-0.1912,-0.1924,-0.1915,-0.1917,-0.1919,-0.1958,-0.1964,-0.1969,0,0,0,0,0,0,-0.1919,-0.193,-0.1927,-0.1939,-0.195,-0.1954,-0.1959,-0.1955,-0.1954,-0.1949,-0.1932,-0.193,-0.1938,-0.1928,-0.192,-0.1935,-0.1915,-0.1916,-0.1945,-0.1951,-0.1955,-0.1956,-0.1895,0,0,0,0,0,-0.1921,-0.1929,-0.1941,-0.195,-0.1958,-0.1959,-0.1963,-0.1962,-0.1963,-0.1961,-0.1954,-0.1946,-0.1946,-0.1945,-0.1942,-0.1954,-0.1932,-0.1961,-0.1965,-0.1969,-0.197,-0.1955,-0.1959,-0.1925,-0.1925,-0.1925,0,0,-0.1922,-0.1929,-0.1933,-0.195,-0.1955,-0.1973,-0.1959,-0.1972,-0.1984,-0.196,-0.197,-0.1962,-0.1953,-0.1964,-0.1967,-0.1956,-0.1967,-0.1971,-0.1975,-0.1973,-0.1958,-0.1961,-0.1963,-0.1927,-0.1926,-0.1926,0,0,-0.1932,-0.1936,-0.1948,-0.1962,-0.1977,-0.1983,-0.1989,-0.2,-0.2001,-0.2015,-0.1999,-0.2,-0.2001,-0.1996,-0.1994,-0.2023,-0.1991,-0.2023,-0.2047,-0.2034,-0.2037,-0.2038,-0.201,-0.2009,-0.2025,-0.2026,-0.2026,0,-0.1931,-0.1947,-0.1955,-0.1974,-0.1985,-0.199,-0.2009,-0.2019,-0.2029,-0.2031,-0.2024,-0.2024,-0.2016,-0.2026,-0.2037,-0.2033,-0.2015,-0.2027,-0.204,-0.2041,-0.2042,-0.2013,-0.2011,-0.2028,-0.2028,-0.2027,-0.2027,0,-0.1951,-0.1966,-0.1977,-0.2,-0.2017,-0.2034,-0.2054,-0.2067,-0.2068,-0.2072,-0.2081,-0.2073,-0.2069,-0.2072,-0.2065,-0.2074,-0.2054,-0.2046,-0.2024,-0.2048,-0.2016,-0.2013,-0.2031,-0.203,-0.203,-0.2029,0,0,-0.1936,-0.1981,-0.1982,-0.1994,-0.203,-0.2042,-0.2075,-0.2097,-0.2105,-0.2117,-0.2123,-0.2132,-0.212,-0.2117,-0.2107,-0.2101,-0.2094,-0.2082,-0.208,-0.2051,-0.2053,-0.1976,-0.1966,-0.2089,-0.2089,-0.2089,-0.2025,0,-0.1943,-0.1977,-0.2002,-0.2031,-0.2048,-0.2073,-0.2099,-0.2121,-0.2133,-0.2143,-0.2142,-0.2143,-0.214,-0.2134,-0.2132,-0.2103,-0.209,-0.2111,-0.2037,-0.2034,-0.1961,-0.1961,-0.1829,-0.1756,-0.2023,-0.2022,-0.2022,0,-0.1944,-0.1967,-0.1997,-0.2037,-0.2047,-0.2069,-0.2098,-0.2124,-0.215,-0.2158,-0.2168,-0.2163,-0.2163,-0.2152,-0.2119,-0.2132,-0.2098,-0.2074,-0.207,-0.1981,-0.1952,-0.1777,-0.1741,-0.2017,-0.2017,-0.2018,-0.2018,0,-0.1906,-0.1957,-0.1976,-0.1991,-0.2044,-0.2059,-0.2085,-0.212,-0.2134,-0.2161,-0.2162,-0.2171,-0.2156,-0.2136,-0.2093,-0.2105,-0.2041,-0.2048,-0.1945,-0.1938,-0.1801,-0.1782,-0.2017,-0.2017,-0.2017,-0.2018,-0.2018,0,-0.189,-0.1901,-0.1959,-0.1966,-0.1984,-0.2034,-0.2051,-0.2081,-0.2116,-0.2119,-0.2158,-0.2148,-0.2151,-0.2118,-0.2089,-0.1999,-0.2034,-0.1941,-0.1916,-0.1811,-0.1795,-0.2005,-0.2005,-0.2015,-0.2016,-0.2016,-0.2017,0,-0.183,-0.1874,-0.1892,-0.1948,-0.1962,-0.197,-0.202,-0.2029,-0.2078,-0.2082,-0.2088,-0.2119,-0.2076,-0.2059,-0.2008,-0.1969,-0.1907,-0.1864,-0.1734,-0.1695,-0.1815,-0.1818,-0.1747,-0.1744,-0.1741,-0.1739,-0.1737,0,-0.1798,-0.1803,-0.1855,-0.1859,-0.1879,-0.1906,-0.1919,-0.1989,-0.2001,-0.2048,-0.2036,-0.2023,-0.1974,-0.1881,-0.182,-0.1737,-0.181,-0.157,-0.1573,-0.1804,-0.1788,-0.1795,-0.1801,-0.1406,-0.1402,-0.1398,-0.1395,0,-0.1724,-0.1744,-0.1757,-0.1772,-0.1785,-0.1801,-0.1831,-0.1837,-0.1908,-0.1909,-0.1894,-0.1862,-0.1796,-0.165,-0.1564,-0.1509,-0.1579,-0.1492,-0.1753,-0.15,-0.1479,-0.1464,-0.1482,-0.1362,-0.1366,-0.1368,-0.137,-0.1371,-0.1651,-0.164,-0.1659,-0.1659,-0.1679,-0.1674,-0.1643,-0.1682,-0.1672,-0.1647,-0.1703,-0.1607,-0.1587,-0.1379,-0.1292,-0.1238,-0.1354,-0.1295,-0.1308,-0.1324,-0.1301,-0.1277,-0.1117,-0.1119,-0.112,-0.1122,-0.1123,0,-0.1546,-0.1545,-0.1544,-0.1537,-0.1508,-0.1561,-0.1559,-0.1503,-0.1443,-0.1451,-0.1407,-0.1235,-0.1128,-0.1117,-0.098,-0.0946,-0.0957,-0.0905,-0.0924,-0.0957,-0.0986,-0.0948,-0.0668,-0.0667,-0.0666,-0.0665,0,0,-0.1491,-0.1447,-0.1446,-0.136,-0.1355,-0.1272,-0.1241,-0.1183,-0.1158,-0.1062,-0.1014,-0.1072,-0.1085,-0.0881,-0.0828,-0.0726,-0.0837,-0.0687,-0.1052,-0.1108,-0.1135,-0.1208,-0.1185,0,0,0,0,0]},{"header":{"parameterUnit":"m.s-1","parameterCategory":2,"la1":30.2991,"la2":30.254,"lo1":-89.0895,"lo2":-89.0444,"dy":0.0017,"dx":0.0017,"nx":28,"ny":28,"refTime":"2025-01-01T03:00:00:Z","depth":"2","parameterNumber":3,"parameterNumberName":"V-component_of_CURRENTS"},"data":[0,0,0,0,0,0,0,0,0,0,0,0,0,0,0,0,0,0,0,0,0,0,0,0,0,0,0,0,0,0,0,0,0,0,0,0,0,0,0,0,0,0,0,0,0,0,0,0,0,0,0,0,0,0,0,0,0,0,-0.0315,-0.0315,0,-0.0269,-0.0269,-0.0268,-0.0236,-0.0236,-0.0236,-0.0236,-0.0164,-0.0163,-0.0161,0,0,0,0,0,0,0,0,0,0,0,0,0,-0.0336,-0.0336,-0.0315,-0.0315,-0.0314,-0.0269,-0.0269,-0.0268,-0.0236,-0.0236,-0.0236,-0.0236,-0.0165,-0.0163,-0.0161,0,0,0,0,0,0,0,0,0,0,0,0,0,-0.0312,-0.0336,-0.0315,-0.0293,-0.0291,-0.0269,-0.0269,-0.0268,-0.0236,-0.0236,-0.0236,-0.0236,-0.0166,-0.0163,-0.0161,-0.015,0,0,-0.0153,-0.0152,0,0,0,0,0,0,0,0,-0.0313,-0.0311,-0.0297,-0.0295,-0.0292,-0.0259,-0.025,-0.0227,-0.0237,-0.0257,-0.0236,-0.0235,-0.0194,-0.0189,-0.0181,-0.0147,-0.0144,-0.0152,-0.0151,-0.015,-0.0149,0,0,0,0,0,0,0,-0.0315,-0.0313,-0.0296,-0.0297,-0.0294,-0.0272,-0.0269,-0.0245,-0.0227,-0.0255,-0.0253,-0.0248,-0.0192,-0.0183,-0.0179,-0.0143,-0.0153,-0.015,-0.0149,-0.0148,-0.0087,-0.0087,0,0,0,0,0,0,-0.0324,-0.0314,-0.0298,-0.0295,-0.0303,-0.0272,-0.0268,-0.0269,-0.0227,-0.0221,-0.0249,-0.0247,-0.0188,-0.0182,-0.0176,-0.0161,-0.015,-0.0147,-0.0146,-0.0087,-0.0087,-0.0087,0,0,0,0,0,0,-0.0325,-0.0323,-0.03,-0.0304,-0.0299,-0.0273,-0.0274,-0.0269,-0.0261,-0.0223,-0.0216,-0.0247,-0.0187,-0.018,-0.0157,-0.0158,-0.0146,-0.0144,-0.0088,-0.0087,-0.0087,-0.013,0,0,0,0,0,0,-0.0326,-0.0324,-0.0329,-0.0305,-0.0299,-0.0292,-0.0274,-0.0268,-0.0259,-0.0256,-0.0219,-0.0212,-0.0187,-0.0161,-0.0155,-0.0154,-0.0142,-0.0088,-0.0087,-0.0087,-0.0129,-0.0131,-0.0134,0,0,0,0,0,-0.0327,-0.0336,-0.0329,-0.0327,-0.0307,-0.0292,-0.0288,-0.0267,-0.0259,-0.0259,-0.0232,-0.0213,-0.0156,-0.0159,-0.0151,-0.015,-0.0088,-0.0087,-0.0087,-0.0127,-0.0131,-0.0134,0,0,0,0,0,0,-0.0347,-0.0333,-0.0325,-0.033,-0.0314,-0.0287,-0.0286,-0.0272,-0.0251,-0.025,-0.0213,-0.0204,-0.0185,-0.0162,-0.0166,-0.0132,-0.0118,-0.0116,-0.0151,-0.0154,-0.0157,-0.0167,-0.014,0,0,0,0,0,-0.0355,-0.0359,-0.0339,-0.0342,-0.0337,-0.0313,-0.0305,-0.0292,-0.027,-0.0261,-0.0233,-0.0204,-0.0178,-0.0163,-0.0138,-0.0119,-0.0089,-0.0112,-0.0115,-0.0117,-0.012,-0.0074,-0.0073,-0.0087,-0.0087,-0.0087,0,0,-0.0363,-0.0357,-0.0358,-0.0347,-0.0334,-0.0332,-0.0307,-0.0301,-0.0296,-0.0256,-0.0242,-0.0214,-0.0176,-0.0156,-0.0145,-0.0136,-0.0098,-0.0117,-0.012,-0.0121,-0.0074,-0.0073,-0.0071,-0.0087,-0.0087,-0.0087,0,0,-0.0387,-0.0378,-0.039,-0.038,-0.0367,-0.035,-0.0351,-0.0327,-0.0312,-0.0296,-0.0265,-0.0238,-0.0202,-0.0171,-0.0151,-0.0152,-0.0115,-0.0145,-0.0163,-0.0119,-0.0117,-0.0116,-0.0078,-0.0072,-0.0144,-0.0144,-0.0144,0,-0.0399,-0.0411,-0.039,-0.0399,-0.0394,-0.0361,-0.0371,-0.0351,-0.0322,-0.0307,-0.0299,-0.0237,-0.0207,-0.0172,-0.0174,-0.0158,-0.013,-0.0156,-0.0123,-0.012,-0.0118,-0.0079,-0.0073,-0.0146,-0.0146,-0.0146,-0.0145,0,-0.043,-0.0438,-0.0444,-0.0444,-0.0434,-0.0437,-0.0408,-0.0395,-0.0374,-0.0348,-0.0313,-0.0269,-0.0231,-0.0217,-0.0197,-0.0164,-0.0149,-0.0134,-0.0117,-0.0119,-0.0078,-0.007,-0.0149,-0.0148,-0.0148,-0.0147,0,0,-0.0464,-0.0468,-0.047,-0.0477,-0.0459,-0.0456,-0.0444,-0.042,-0.0409,-0.0372,-0.035,-0.0303,-0.0274,-0.025,-0.0215,-0.0177,-0.0137,-0.0154,-0.0151,-0.0121,-0.0043,-0.0017,-0.0006,-0.0117,-0.0116,-0.0115,-0.0022,0,-0.0496,-0.0528,-0.0514,-0.0532,-0.0544,-0.0508,-0.0499,-0.047,-0.0435,-0.0403,-0.0346,-0.0314,-0.0287,-0.027,-0.0228,-0.0158,-0.0119,-0.0164,-0.0042,-0.0038,-0.0018,0.0003,-0.0007,0.0077,-0.0014,-0.0013,-0.0012,0,-0.0533,-0.055,-0.0581,-0.058,-0.058,-0.0582,-0.0556,-0.0542,-0.0483,-0.0454,-0.0405,-0.0357,-0.0294,-0.0274,-0.0157,-0.0188,-0.0124,-0.0069,-0.0064,-0.002,0.0002,0.0065,0.0094,0.0001,-0.0,-0.0001,-0.0002,0,-0.0575,-0.0593,-0.0621,-0.0623,-0.0616,-0.0617,-0.0607,-0.0561,-0.0544,-0.0484,-0.0461,-0.0378,-0.0332,-0.0245,-0.0134,-0.0145,0.0,0.0003,0.0088,0.0091,0.0117,0.012,0.0085,0.0084,0.0084,0.0084,0.0084,0,-0.0618,-0.0638,-0.0646,-0.0663,-0.0687,-0.0662,-0.0667,-0.064,-0.0594,-0.0568,-0.0494,-0.0447,-0.0323,-0.0224,-0.0134,0.0007,0.0005,0.0092,0.0121,0.0102,0.0102,0.0062,0.0058,0.0087,0.0087,0.0086,0.0085,0,-0.0661,-0.0667,-0.07,-0.0708,-0.0711,-0.0729,-0.0716,-0.0712,-0.0663,-0.0626,-0.0608,-0.0489,-0.0354,-0.0224,-0.0063,0.0013,0.0139,0.0186,0.0153,0.0177,0.0197,0.019,0.0289,0.029,0.0292,0.0293,0.0294,0,-0.0686,-0.0711,-0.0741,-0.0764,-0.0771,-0.0788,-0.0795,-0.0756,-0.074,-0.0645,-0.0625,-0.0488,-0.0374,-0.0128,0.0033,0.0207,0.0196,0.0289,0.0268,0.0202,0.022,0.021,0.0202,0.0287,0.0288,0.0288,0.0289,0,-0.0729,-0.0741,-0.0768,-0.082,-0.0843,-0.086,-0.0862,-0.0858,-0.0796,-0.0738,-0.0628,-0.0527,-0.0289,-0.0081,0.0138,0.0234,0.0259,0.031,0.027,0.0231,0.0206,0.0222,0.0212,0.0296,0.0295,0.0294,0.0294,0.0294,-0.0753,-0.0787,-0.0825,-0.0869,-0.0899,-0.0918,-0.0916,-0.0887,-0.0841,-0.0724,-0.0634,-0.0446,-0.0268,0.0067,0.021,0.0344,0.0337,0.037,0.0365,0.036,0.0337,0.0316,0.0422,0.0422,0.0422,0.0422,0.0422,0,-0.0778,-0.0817,-0.0868,-0.0914,-0.0946,-0.095,-0.0943,-0.0902,-0.0827,-0.0701,-0.0565,-0.0333,-0.0107,0.0077,0.0298,0.0416,0.0395,0.0431,0.0379,0.0373,0.0367,0.0342,0.043,0.043,0.043,0.0431,0,0,-0.0793,-0.0848,-0.0877,-0.0935,-0.0965,-0.0973,-0.0959,-0.0872,-0.0765,-0.0609,-0.0459,-0.0291,-0.0075,0.0077,0.0224,0.0337,0.0321,0.0346,0.0331,0.0246,0.0239,0.0327,0.0281,0,0,0,0,0]}],[{"header":{"parameterUnit":"m.s-1","parameterCategory":2,"la1":30.2991,"la2":30.254,"lo1":-89.0895,"lo2":-89.0444,"dy":0.0017,"dx":0.0017,"nx":28,"ny":28,"refTime":"2025-01-01T03:00:00:Z","depth":"4","parameterNumber":2,"parameterNumberName":"U-component_of_CURRENTS"},"data":[0,0,0,0,0,0,0,0,0,0,0,0,0,0,0,0,0,0,0,0,0,0,0,0,0,0,0,0,0,0,0,0,0,0,0,0,0,0,0,0,0,0,0,0,0,0,0,0,0,0,0,0,0,0,0,0,0,0,-0.1385,-0.1385,0,-0.1427,-0.1427,-0.1428,-0.1457,-0.1458,-0.1458,-0.1458,-0.1499,-0.1499,-0.15,0,0,0,0,0,0,0,0,0,0,0,0,0,-0.1324,-0.1325,-0.1385,-0.1385,-0.1386,-0.1427,-0.1427,-0.1428,-0.1457,-0.1458,-0.1458,-0.1458,-0.1498,-0.1499,-0.15,0,0,0,0,0,0,0,0,0,0,0,0,0,-0.1356,-0.1325,-0.1385,-0.1407,-0.1409,-0.1427,-0.1427,-0.1428,-0.1457,-0.1458,-0.1458,-0.1459,-0.1498,-0.1499,-0.15,-0.1497,0,0,-0.1504,-0.1504,0,0,0,0,0,0,0,0,-0.1354,-0.1358,-0.1403,-0.1405,-0.1408,-0.1439,-0.1421,-0.1451,-0.1457,-0.1437,-0.1458,-0.1459,-0.1479,-0.1482,-0.1487,-0.1499,-0.1501,-0.1504,-0.1505,-0.1505,-0.1505,0,0,0,0,0,0,0,-0.1352,-0.1356,-0.14,-0.1403,-0.1407,-0.1413,-0.1418,-0.1427,-0.1454,-0.1439,-0.1442,-0.1448,-0.148,-0.1485,-0.1488,-0.1501,-0.1504,-0.1505,-0.1506,-0.1506,-0.1567,-0.1568,0,0,0,0,0,0,-0.1349,-0.1354,-0.1399,-0.1402,-0.1383,-0.1413,-0.1419,-0.1427,-0.1454,-0.1459,-0.1448,-0.145,-0.1483,-0.1486,-0.1489,-0.154,-0.1505,-0.1506,-0.1507,-0.1566,-0.1567,-0.1568,0,0,0,0,0,0,-0.1347,-0.1352,-0.1397,-0.138,-0.1386,-0.1414,-0.1423,-0.1428,-0.1456,-0.1461,-0.1465,-0.1474,-0.1484,-0.1488,-0.152,-0.154,-0.1507,-0.1508,-0.1565,-0.1566,-0.1568,-0.1608,0,0,0,0,0,0,-0.1345,-0.1352,-0.1367,-0.138,-0.1387,-0.1424,-0.1423,-0.1428,-0.1458,-0.1461,-0.1484,-0.1487,-0.1484,-0.1518,-0.1521,-0.1541,-0.1509,-0.1564,-0.1565,-0.1567,-0.1606,-0.1611,-0.1615,0,0,0,0,0,-0.1343,-0.1359,-0.1367,-0.1373,-0.1403,-0.1425,-0.1429,-0.1449,-0.1459,-0.1476,-0.1493,-0.1487,-0.1531,-0.152,-0.1523,-0.1544,-0.1563,-0.1565,-0.1567,-0.1604,-0.161,-0.1615,0,0,0,0,0,0,-0.1343,-0.1364,-0.1373,-0.1396,-0.1417,-0.1431,-0.1451,-0.1463,-0.1489,-0.1499,-0.1502,-0.1506,-0.1539,-0.1538,-0.1525,-0.1566,-0.1545,-0.1548,-0.1572,-0.1578,-0.1582,-0.1575,-0.1509,0,0,0,0,0,-0.1349,-0.1367,-0.1386,-0.1407,-0.142,-0.1439,-0.1455,-0.1469,-0.1489,-0.1502,-0.1519,-0.1534,-0.1546,-0.156,-0.157,-0.1596,-0.1577,-0.161,-0.1615,-0.1619,-0.1615,-0.1607,-0.161,-0.1575,-0.1575,-0.1575,0,0,-0.1356,-0.1369,-0.1382,-0.1409,-0.1427,-0.1449,-0.1451,-0.1482,-0.1504,-0.1502,-0.1545,-0.1553,-0.1557,-0.1584,-0.1599,-0.1589,-0.162,-0.1622,-0.1625,-0.1619,-0.1609,-0.1612,-0.1615,-0.1576,-0.1576,-0.1576,0,0,-0.1369,-0.1392,-0.1409,-0.1429,-0.146,-0.1472,-0.1486,-0.1515,-0.1535,-0.1571,-0.1573,-0.1594,-0.1622,-0.1625,-0.1628,-0.1665,-0.1644,-0.1674,-0.1696,-0.1688,-0.1691,-0.1693,-0.1674,-0.1674,-0.1679,-0.1679,-0.1679,0,-0.1379,-0.14,-0.1419,-0.144,-0.1461,-0.1485,-0.1509,-0.1532,-0.1569,-0.1585,-0.1593,-0.163,-0.1636,-0.1656,-0.1671,-0.1675,-0.1664,-0.1674,-0.1694,-0.1695,-0.1696,-0.1676,-0.1676,-0.1681,-0.1681,-0.1681,-0.168,0,-0.1396,-0.1425,-0.1439,-0.1472,-0.1497,-0.1524,-0.1554,-0.1586,-0.1613,-0.1629,-0.1666,-0.1676,-0.1694,-0.1703,-0.17,-0.1717,-0.1704,-0.1698,-0.1677,-0.1702,-0.168,-0.1678,-0.1684,-0.1683,-0.1683,-0.1682,0,0,-0.1385,-0.144,-0.1448,-0.1469,-0.1517,-0.1535,-0.158,-0.1616,-0.1642,-0.1679,-0.1706,-0.1731,-0.1737,-0.174,-0.1742,-0.174,-0.1742,-0.1729,-0.1728,-0.1706,-0.172,-0.1606,-0.1593,-0.1743,-0.1743,-0.1743,-0.17,0,-0.1394,-0.1435,-0.1463,-0.1509,-0.1532,-0.1572,-0.1607,-0.1645,-0.1677,-0.1711,-0.1725,-0.1751,-0.1751,-0.1764,-0.1764,-0.1748,-0.174,-0.1753,-0.1702,-0.17,-0.1591,-0.1588,-0.1743,-0.1699,-0.1699,-0.1698,-0.1698,0,-0.1392,-0.1421,-0.1466,-0.1523,-0.1538,-0.1573,-0.1629,-0.1664,-0.1712,-0.1737,-0.1765,-0.1777,-0.1789,-0.1783,-0.1764,-0.1775,-0.1751,-0.1733,-0.1731,-0.1606,-0.1582,-0.1668,-0.1695,-0.1695,-0.1695,-0.1696,-0.1696,0,-0.1354,-0.142,-0.1456,-0.1477,-0.1546,-0.1579,-0.162,-0.1674,-0.1699,-0.1754,-0.1771,-0.1793,-0.1798,-0.1783,-0.1752,-0.1763,-0.1715,-0.1722,-0.1594,-0.1586,-0.1685,-0.1684,-0.1699,-0.1699,-0.1699,-0.1699,-0.1699,0,-0.1331,-0.1363,-0.1447,-0.1465,-0.1508,-0.1568,-0.1614,-0.1656,-0.1711,-0.1723,-0.178,-0.1777,-0.1799,-0.1777,-0.1752,-0.1655,-0.1713,-0.1584,-0.1562,-0.1704,-0.1705,-0.1684,-0.1683,-0.1697,-0.1698,-0.1698,-0.1698,0,-0.1271,-0.1331,-0.1375,-0.1461,-0.1489,-0.152,-0.1601,-0.1621,-0.1691,-0.1708,-0.1724,-0.1763,-0.1728,-0.1726,-0.1689,-0.1631,-0.1567,-0.152,-0.1662,-0.1651,-0.1446,-0.1448,-0.137,-0.1365,-0.1362,-0.1358,-0.1356,0,-0.1238,-0.1258,-0.1355,-0.1379,-0.1421,-0.148,-0.1509,-0.1596,-0.1611,-0.1673,-0.1659,-0.1666,-0.1671,-0.1518,-0.1543,-0.1474,-0.1458,-0.142,-0.144,-0.1423,-0.141,-0.1418,-0.1425,-0.135,-0.1349,-0.1348,-0.1347,0,-0.1168,-0.1217,-0.125,-0.1302,-0.1345,-0.138,-0.1432,-0.1431,-0.1509,-0.1591,-0.1537,-0.1506,-0.1461,-0.1426,-0.1377,-0.1336,-0.1444,-0.138,-0.1388,-0.1406,-0.1398,-0.139,-0.1402,-0.1333,-0.1335,-0.1337,-0.1337,0,-0.1111,-0.1117,-0.117,-0.1198,-0.1251,-0.1251,-0.1296,-0.1301,-0.1327,-0.1403,-0.1378,-0.1388,-0.1435,-0.1352,-0.131,-0.1255,-0.124,-0.1201,-0.1218,-0.1233,-0.1208,-0.1179,-0.1012,0,0,0,0,0,-0.1044,-0.1035,-0.1058,-0.108,-0.1129,-0.1154,-0.1225,-0.1272,-0.1353,-0.1271,-0.132,-0.1271,-0.1206,-0.1221,-0.1133,-0.1252,-0.125,-0.1146,-0.1216,-0.126,-0.1275,-0.1259,0,0,0,0,0,0,-0.0998,-0.1015,-0.1017,-0.0971,-0.0963,-0.0996,-0.1033,-0.1091,-0.1058,-0.1146,-0.1114,-0.1185,-0.1141,-0.1222,-0.1101,-0.1104,-0.112,-0.1167,-0.1163,-0.1251,-0.1265,-0.1277,-0.1266,0,0,0,0,0]},{"header":{"parameterUnit":"m.s-1","parameterCategory":2,"la1":30.2991,"la2":30.254,"lo1":-89.0895,"lo2":-89.0444,"dy":0.0017,"dx":0.0017,"nx":28,"ny":28,"refTime":"2025-01-01T03:00:00:Z","depth":"4","parameterNumber":3,"parameterNumberName":"V-component_of_CURRENTS"},"data":[0,0,0,0,0,0,0,0,0,0,0,0,0,0,0,0,0,0,0,0,0,0,0,0,0,0,0,0,0,0,0,0,0,0,0,0,0,0,0,0,0,0,0,0,0,0,0,0,0,0,0,0,0,0,0,0,0,0,-0.018,-0.018,0,-0.0155,-0.0154,-0.0154,-0.0139,-0.0139,-0.0139,-0.0139,-0.0092,-0.0091,-0.0089,0,0,0,0,0,0,0,0,0,0,0,0,0,-0.0185,-0.0186,-0.018,-0.018,-0.018,-0.0155,-0.0154,-0.0154,-0.0139,-0.0139,-0.0139,-0.0139,-0.0092,-0.0091,-0.0089,0,0,0,0,0,0,0,0,0,0,0,0,0,-0.0174,-0.0186,-0.018,-0.017,-0.0169,-0.0155,-0.0154,-0.0154,-0.0139,-0.0139,-0.0139,-0.0139,-0.0093,-0.0091,-0.0089,-0.0078,0,0,-0.0083,-0.0083,0,0,0,0,0,0,0,0,-0.0174,-0.0173,-0.0172,-0.0171,-0.0169,-0.0151,-0.0139,-0.0128,-0.0139,-0.015,-0.0139,-0.0139,-0.011,-0.0107,-0.0102,-0.0076,-0.0074,-0.0083,-0.0082,-0.0081,-0.0081,0,0,0,0,0,0,0,-0.0175,-0.0174,-0.017,-0.0171,-0.017,-0.0156,-0.0154,-0.0137,-0.013,-0.0149,-0.0148,-0.0146,-0.0109,-0.0103,-0.01,-0.0073,-0.0083,-0.0082,-0.0081,-0.008,-0.0033,-0.0033,0,0,0,0,0,0,-0.0181,-0.0175,-0.0171,-0.0169,-0.0172,-0.0156,-0.0154,-0.0156,-0.013,-0.0127,-0.0146,-0.0145,-0.0107,-0.0102,-0.0098,-0.0085,-0.0081,-0.008,-0.0079,-0.0033,-0.0033,-0.0033,0,0,0,0,0,0,-0.0181,-0.0181,-0.0172,-0.0171,-0.0169,-0.0156,-0.0158,-0.0156,-0.0154,-0.0128,-0.0124,-0.0148,-0.0106,-0.0101,-0.0086,-0.0083,-0.0079,-0.0077,-0.0033,-0.0033,-0.0033,-0.0058,0,0,0,0,0,0,-0.0181,-0.0181,-0.0187,-0.0172,-0.017,-0.0167,-0.0158,-0.0155,-0.0153,-0.0152,-0.0128,-0.0123,-0.0106,-0.0089,-0.0084,-0.0081,-0.0076,-0.0033,-0.0033,-0.0033,-0.0057,-0.0058,-0.0059,0,0,0,0,0,-0.0182,-0.0189,-0.0187,-0.0187,-0.0177,-0.0168,-0.0165,-0.0155,-0.0153,-0.0153,-0.0137,-0.0124,-0.0084,-0.0087,-0.0082,-0.0078,-0.0033,-0.0033,-0.0033,-0.0056,-0.0058,-0.0059,0,0,0,0,0,0,-0.0194,-0.0188,-0.0186,-0.0191,-0.0182,-0.0165,-0.0166,-0.0159,-0.0147,-0.0148,-0.0124,-0.0118,-0.0104,-0.0087,-0.0092,-0.0063,-0.0056,-0.0054,-0.0076,-0.0077,-0.0078,-0.0085,-0.0074,0,0,0,0,0,-0.02,-0.0205,-0.0193,-0.0198,-0.0196,-0.0183,-0.0179,-0.0173,-0.0159,-0.0154,-0.0136,-0.0117,-0.0097,-0.0086,-0.0068,-0.0053,-0.0031,-0.0046,-0.0047,-0.0048,-0.0049,-0.0012,-0.001,-0.0032,-0.0032,-0.0032,0,0,-0.0205,-0.0204,-0.0206,-0.0201,-0.0195,-0.0194,-0.018,-0.0179,-0.0175,-0.015,-0.0142,-0.0123,-0.0095,-0.0078,-0.007,-0.0064,-0.0031,-0.0048,-0.0049,-0.0049,-0.0011,-0.0009,-0.0007,-0.0032,-0.0032,-0.0032,0,0,-0.022,-0.0219,-0.0229,-0.0223,-0.0218,-0.0207,-0.0209,-0.0195,-0.0187,-0.0176,-0.0156,-0.0135,-0.011,-0.0085,-0.0069,-0.0066,-0.0041,-0.0062,-0.007,-0.0034,-0.0032,-0.003,-0.0003,0.0002,-0.006,-0.006,-0.006,0,-0.0229,-0.024,-0.0229,-0.0235,-0.0235,-0.0216,-0.0224,-0.0209,-0.0192,-0.0183,-0.0178,-0.0133,-0.011,-0.0081,-0.008,-0.0068,-0.0049,-0.0068,-0.0036,-0.0033,-0.003,-0.0004,0.0002,-0.0061,-0.0061,-0.0061,-0.0061,0,-0.0249,-0.0259,-0.0263,-0.0266,-0.0261,-0.0266,-0.0246,-0.0238,-0.0227,-0.0209,-0.0183,-0.0149,-0.0122,-0.0108,-0.0093,-0.0062,-0.0056,-0.0045,-0.0033,-0.003,-0.0002,0.0005,-0.0063,-0.0062,-0.0062,-0.0062,0,0,-0.0271,-0.0278,-0.0282,-0.0292,-0.0281,-0.0282,-0.0271,-0.0256,-0.0253,-0.0222,-0.0209,-0.0166,-0.0147,-0.0129,-0.0101,-0.0066,-0.003,-0.0051,-0.0049,-0.0028,0.0043,0.0036,0.0042,-0.0014,-0.0013,-0.0013,0.0053,0,-0.0294,-0.0321,-0.0311,-0.0331,-0.0343,-0.032,-0.0314,-0.0294,-0.0272,-0.0251,-0.0202,-0.0181,-0.0154,-0.0145,-0.0103,-0.005,-0.0014,-0.005,0.0039,0.0041,0.0033,0.0049,-0.0009,0.0058,0.006,0.0061,0.0062,0,-0.0318,-0.0335,-0.0364,-0.0372,-0.0375,-0.038,-0.037,-0.036,-0.0317,-0.0298,-0.0258,-0.0222,-0.0166,-0.0147,-0.0047,-0.0072,-0.002,0.0025,0.0029,0.0035,0.0046,0.0056,0.0073,0.0072,0.0071,0.0071,0.007,0,-0.035,-0.037,-0.0398,-0.0402,-0.0405,-0.0412,-0.041,-0.038,-0.0373,-0.0328,-0.0316,-0.0244,-0.021,-0.0131,-0.0039,-0.0044,0.0071,0.0079,0.0124,0.0124,0.0121,0.0119,0.015,0.015,0.015,0.015,0.015,0,-0.0378,-0.0401,-0.0421,-0.0437,-0.0469,-0.0454,-0.0471,-0.0453,-0.0424,-0.0413,-0.0348,-0.0317,-0.0205,-0.0126,-0.0044,0.0059,0.007,0.0126,0.0144,0.0109,0.0104,0.0126,0.0122,0.0152,0.0152,0.0151,0.0151,0,-0.0407,-0.0419,-0.0456,-0.0477,-0.0488,-0.0512,-0.052,-0.0525,-0.0493,-0.0474,-0.0462,-0.0367,-0.0261,-0.0147,-0.0011,0.0048,0.0149,0.0182,0.0131,0.0145,0.0177,0.0172,0.0238,0.0238,0.0238,0.0238,0.0239,0,-0.0422,-0.0446,-0.0494,-0.0523,-0.0539,-0.0569,-0.0586,-0.0566,-0.056,-0.05,-0.0487,-0.0386,-0.0313,-0.0119,-0.0006,0.015,0.0171,0.0213,0.0201,0.0177,0.0188,0.0182,0.0176,0.0239,0.0239,0.0239,0.0239,0,-0.045,-0.0472,-0.0503,-0.0567,-0.0603,-0.0633,-0.065,-0.0649,-0.0612,-0.0588,-0.0493,-0.0387,-0.0264,-0.0114,0.0007,0.0118,0.018,0.0217,0.0217,0.0206,0.018,0.0189,0.0183,0.024,0.024,0.024,0.024,0,-0.0468,-0.0501,-0.0548,-0.0599,-0.0649,-0.0676,-0.0683,-0.0657,-0.0639,-0.0561,-0.053,-0.0388,-0.03,-0.0131,-0.0018,0.0089,0.0113,0.0137,0.0142,0.0142,0.0092,0.0044,0.0082,0,0,0,0,0,-0.048,-0.0518,-0.0573,-0.0626,-0.0676,-0.0697,-0.0712,-0.0704,-0.0669,-0.0604,-0.056,-0.0439,-0.0252,-0.0165,-0.0057,-0.003,0.0114,0.0097,0.0139,0.0246,0.0245,0.0202,0,0,0,0,0,0,-0.0489,-0.0544,-0.0573,-0.0633,-0.0669,-0.0712,-0.0721,-0.0699,-0.0647,-0.0598,-0.049,-0.0424,-0.0238,-0.0309,-0.0056,-0.0024,0.0014,0.019,0.0192,0.0247,0.0246,0.0245,0.02,0,0,0,0,0]}]]